Preview of NWS' New Version of Forecast
This preview is not operational and should not be used for support decisions.

Regional Weather Roundup (RWR)

Issued by National Weather Service (NWS)

                            
000
ASUS43 KLSX 260307
RWRMO 

WEATHER SUMMARY FOR MISSOURI
NATIONAL WEATHER SERVICE SPRINGFIELD MO
1000 PM CDT SAT MAY 25 2019

NOTE: "FAIR" INDICATES FEW OR NO CLOUDS BELOW 12,000 FEET WITH NO
       SIGNIFICANT WEATHER AND/OR OBSTRUCTIONS TO VISIBILITY.
       CURRENT SKY AND/OR WEATHER CONDITIONS ARE NOT AVAILABLE FOR
       CHILLICOTHE AND FARMINGTON.

MOZ001>031-035>038-043-044-053-054-260400-
...NORTHERN AND WESTERN MISSOURI...
  
CITY           SKY/WX    TMP DP  RH WIND       PRES   REMARKS
KANSAS CTY INT CLOUDY    73  70  90 SW3       29.96S                  
KANSAS C DTWN  CLOUDY    77  69  76 S6        29.94S                  
LEE'S SUMMIT   CLOUDY    76  68  76 SW10      29.97R                  
ST JOSEPH      CLOUDY    73  70  90 S5        29.94F                  
CHILLICOTHE      N/A     67  65  93 NE3       29.98R                  
KIRKSVILLE     CLOUDY    66  65  96 VRB3      29.98S                  
     
$$
MOZ066>068-077>081-088>096-101>105-260400-
...SOUTHWEST MISSOURI...
  
CITY           SKY/WX    TMP DP  RH WIND       PRES   REMARKS
SPRINGFIELD    CLOUDY    75  66  73 S8        30.03R                  
JOPLIN         CLOUDY    75  68  78 S8        30.03R                  
BRANSON        PTCLDY    75  64  69 CALM      30.07R                  
               
$$
MOZ032>034-039>042-045>050-055>058-069>072-260400-
...CENTRAL MISSOURI...  
  
CITY           SKY/WX    TMP DP  RH WIND       PRES   REMARKS
COLUMBIA       PTCLDY    74  67  78 S6        29.98R                  
ROLLA          PTCLDY    75  66  73 S8        30.02R                  
SEDALIA        MOCLDY    72  67  84 SW6       29.99R                  
WHITEMAN AFB   CLOUDY    76  69  78 SW7       29.94R                  
WARRENSBURG    MOCLDY    73  66  78 S6        29.97R                  
OSAGE BEACH    MOCLDY    77  68  73 S7        30.01R                  
               
$$
MOZ051-052-059>065-260400-
...EAST CENTRAL MISSOURI...
  
CITY           SKY/WX    TMP DP  RH WIND       PRES   REMARKS
ST LOUIS INTL  PTCLDY    83  67  58 S6        29.99R                  
SPIRIT OF STL  CLEAR     79  70  74 S5        29.98R                  
ST CHARLES       N/A    N/A N/A N/A MISG      29.98R                  
                   
$$
MOZ072>076-082>087-097>100-106>115-260400-
...SOUTH CENTRAL AND SOUTHEAST MISSOURI...
  
CITY           SKY/WX    TMP DP  RH WIND       PRES   REMARKS
CAPE GIRARDEAU FAIR      77  68  73 SW6       30.03R                  
FARMINGTON     CLEAR     75  70  84 S5        30.06R                  
POPLAR BLUFF   FAIR      77  69  76 S3        30.04R                  
WEST PLAINS    CLOUDY    77  66  68 S7        30.07R                  
                                       
$$